DW9280 Weather Reports


time (UTC)temp
C
wind
direction
speed
KPH
gust
KPH
rain 1hr
cm
rain 24hr
cm
rain mn
cm
humidity
%
barometer
mb
20260507073647 12 310 4.8 16.1 0.00 0.00 0.00 72 1015.7
20260507073132 12 5 4.8 12.9 0.00 0.00 0.00 73 1015.7
20260507072904 12 338 4.8 16.1 0.00 0.00 0.00 74 1015.7
20260507072631 11 355 6.4 16.1 0.00 0.00 0.00 74 1015.7
20260507072403 11 10 6.4 16.1 0.00 0.00 0.00 74 1015.7
20260507072133 11 0 6.4 16.1 0.00 0.00 0.00 73 1015.7
20260507071904 11 65 6.4 16.1 0.00 0.00 0.00 73 1015.7
20260507071634 11 19 6.4 14.5 0.00 0.00 0.00 74 1015.7
20260507071403 11 355 6.4 14.5 0.00 0.00 0.00 74 1015.7
20260507071132 11 334 6.4 14.5 0.00 0.00 0.00 74 1015.6
20260507070905 11 15 6.4 12.9 0.00 0.00 0.00 74 1015.7
20260507070631 11 5 4.8 12.9 0.00 0.00 0.00 75 1015.6
20260507070402 11 355 4.8 16.1 0.00 0.00 0.00 75 1015.6
20260507070216 11 38 4.8 16.1 0.00 0.00 0.00 76 1015.6
20260507070158 11 69 4.8 16.1 0.00 0.00 0.00 76 1015.6
20260507065629 11 28 6.4 16.1 0.00 0.00 0.00 76 1015.6
20260507065404 11 351 6.4 16.1 0.00 0.00 0.00 76 1015.5
20260507065131 11 23 6.4 16.1 0.00 0.00 0.00 76 1015.5
20260507064904 11 355 6.4 16.1 0.00 0.00 0.00 77 1015.5
20260507064629 11 300 4.8 16.1 0.00 0.00 0.00 78 1015.5
20260507064403 10 324 3.2 12.9 0.00 0.00 0.00 79 1015.5
20260507064129 10 46 3.2 12.9 0.00 0.00 0.00 79 1015.5
20260507063904 10 328 3.2 8.0 0.00 0.00 0.00 80 1015.5
20260507063629 10 24 3.2 8.0 0.00 0.00 0.00 81 1015.4
20260507063401 10 355 3.2 8.0 0.00 0.00 0.00 81 1015.4
20260507063123 10 30 3.2 8.0 0.00 0.00 0.00 82 1015.4
20260507062905 10 42 3.2 8.0 0.00 0.00 0.00 82 1015.4
20260507062621 10 44 3.2 8.0 0.00 0.00 0.00 83 1015.4
20260507062401 9 49 3.2 8.0 0.00 0.00 0.00 83 1015.4
20260507062115 9 22 3.2 8.0 0.00 0.00 0.00 84 1015.4
20260507061906 9 16 3.2 8.0 0.00 0.00 0.00 84 1015.4
20260507061614 9 82 1.6 6.4 0.00 0.00 0.00 85 1015.4
20260507061403 9 94 1.6 6.4 0.00 0.00 0.00 86 1015.4
20260507061115 8 96 1.6 6.4 0.00 0.00 0.00 86 1015.4
20260507060905 8 103 1.6 6.4 0.00 0.00 0.00 87 1015.4
20260507060604 8 32 1.6 6.4 0.00 0.00 0.00 87 1015.4
20260507060405 8 35 1.6 6.4 0.00 0.00 0.00 88 1015.3
20260507060106 8 23 1.6 6.4 0.00 0.00 0.00 88 1015.4
20260507055904 8 21 1.6 6.4 0.00 0.00 0.00 89 1015.4
20260507055604 8 19 1.6 6.4 0.00 0.00 0.00 89 1015.3
20260507055402 8 17 1.6 4.8 0.00 0.00 0.00 90 1015.3
20260507055104 8 17 1.6 4.8 0.00 0.00 0.00 90 1015.4
20260507054909 7 15 1.6 4.8 0.00 0.00 0.00 90 1015.3
20260507054602 7 11 1.6 4.8 0.00 0.00 0.00 91 1015.2
20260507054403 7 11 0.0 4.8 0.00 0.00 0.00 91 1015.2
20260507054102 7 11 0.0 4.8 0.00 0.00 0.00 92 1015.2
20260507053904 7 11 0.0 4.8 0.00 0.00 0.00 92 1015.2
20260507053601 7 11 1.6 4.8 0.00 0.00 0.00 92 1015.2
20260507053404 7 11 0.0 3.2 0.00 0.00 0.00 92 1015.2
20260507053104 7 11 0.0 3.2 0.00 0.00 0.00 92 1015.2
20260507052904 7 11 0.0 3.2 0.00 0.00 0.00 92 1015.2
20260507052602 7 10 0.0 1.6 0.00 0.00 0.00 92 1015.1
20260507052404 7 10 0.0 1.6 0.00 0.00 0.00 92 1015.1
20260507052102 6 11 0.0 1.6 0.00 0.00 0.00 92 1015.1
20260507051903 6 11 0.0 0.0 0.00 0.00 0.00 92 1015.1
20260507051603 6 11 0.0 0.0 0.00 0.00 0.00 92 1015.0
20260507051403 6 11 0.0 0.0 0.00 0.00 0.00 92 1015.0
20260507051051 6 11 0.0 0.0 0.00 0.00 0.00 92 1015.0
20260507050906 6 11 0.0 0.0 0.00 0.00 0.00 92 1015.0
20260507050546 6 11 0.0 0.0 0.00 0.00 0.00 91 1014.9
20260507050403 6 11 0.0 0.0 0.00 0.00 0.00 92 1014.9
20260507050051 6 11 0.0 0.0 0.00 0.00 0.00 92 1014.9
20260507045904 6 11 0.0 0.0 0.00 0.00 0.00 92 1014.8
20260507045533 6 11 0.0 0.0 0.00 0.00 0.00 92 1014.8
20260507045402 6 11 0.0 0.0 0.00 0.00 0.00 92 1014.8
20260507045032 6 11 0.0 0.0 0.00 0.00 0.00 92 1014.8
20260507044906 6 11 0.0 0.0 0.00 0.00 0.00 91 1014.8
20260507044539 6 11 0.0 0.0 0.00 0.00 0.00 92 1014.7
20260507044404 6 11 0.0 1.6 0.00 0.00 0.00 92 1014.7
20260507044031 6 11 0.0 1.6 0.00 0.00 0.00 91 1014.7
20260507043904 6 11 0.0 1.6 0.00 0.00 0.00 91 1014.7
20260507043532 6 11 0.0 1.6 0.00 0.00 0.00 91 1014.7
20260507043402 6 11 0.0 1.6 0.00 0.00 0.00 91 1014.7
20260507043032 6 11 0.0 1.6 0.00 0.00 0.00 91 1014.6
20260507042905 6 11 0.0 1.6 0.00 0.00 0.00 91 1014.6
20260507042533 6 11 0.0 1.6 0.00 0.00 0.00 91 1014.6
20260507042402 6 11 0.0 1.6 0.00 0.00 0.00 91 1014.6
20260507042033 6 11 0.0 1.6 0.00 0.00 0.00 91 1014.6
20260507041905 6 11 0.0 1.6 0.00 0.00 0.00 91 1014.6
20260507041532 6 11 0.0 1.6 0.00 0.00 0.00 91 1014.5
20260507041506 6 11 0.0 3.2 0.00 0.00 0.00 91 1014.4
20260507041433 6 11 0.0 1.6 0.00 0.00 0.00 91 1014.5
20260507041129 6 11 0.0 3.2 0.00 0.00 0.00 91 1014.5
20260507040519 6 11 0.0 3.2 0.00 0.00 0.00 90 1014.4
20260507040402 6 11 0.0 3.2 0.00 0.00 0.00 90 1014.4
20260507040015 6 11 0.0 1.6 0.00 0.00 0.00 90 1014.4
20260507035903 6 13 0.0 0.0 0.00 0.00 0.00 90 1014.4
20260507035502 6 13 0.0 0.0 0.00 0.00 0.00 90 1014.4
20260507035405 6 13 0.0 0.0 0.00 0.00 0.00 90 1014.3
20260507035005 6 13 0.0 0.0 0.00 0.00 0.00 90 1014.3
20260507034904 6 13 0.0 0.0 0.00 0.00 0.00 90 1014.3
20260507034506 6 13 0.0 0.0 0.00 0.00 0.00 90 1014.3
20260507034404 6 13 0.0 0.0 0.00 0.00 0.00 90 1014.3
20260507034002 6 13 0.0 0.0 0.00 0.00 0.00 90 1014.3
20260507033903 6 13 0.0 0.0 0.00 0.00 0.00 90 1014.3
20260507033504 6 13 0.0 0.0 0.00 0.00 0.00 89 1014.3
20260507033406 6 13 0.0 0.0 0.00 0.00 0.00 89 1014.2
20260507033157 6 13 0.0 0.0 0.00 0.00 0.00 90 1014.2
20260507033125 6 13 0.0 0.0 0.00 0.00 0.00 90 1014.2
20260507032504 6 13 0.0 1.6 0.00 0.00 0.00 89 1014.2
20260507032404 6 13 0.0 1.6 0.00 0.00 0.00 89 1014.2
20260507032004 6 13 0.0 3.2 0.00 0.00 0.00 89 1014.2
20260507031905 6 13 0.0 3.2 0.00 0.00 0.00 89 1014.3
20260507031503 6 13 0.0 3.2 0.00 0.00 0.00 89 1014.1
20260507031403 7 13 0.0 3.2 0.00 0.00 0.00 89 1014.1
20260507031157 7 13 0.0 3.2 0.00 0.00 0.00 89 1014.1
20260507031127 7 13 0.0 3.2 0.00 0.00 0.00 89 1014.2
20260507030655 7 13 0.0 3.2 0.00 0.00 0.00 89 1014.1
20260507030624 7 13 0.0 3.2 0.00 0.00 0.00 89 1014.1
20260507030002 7 13 0.0 4.8 0.00 0.00 0.00 89 1014.1
20260507025904 7 13 0.0 4.8 0.00 0.00 0.00 89 1014.1
20260507025504 7 13 0.0 4.8 0.00 0.00 0.00 89 1014.1
20260507025404 7 12 1.6 4.8 0.00 0.00 0.00 89 1014.1
20260507025004 7 12 1.6 6.4 0.00 0.00 0.00 89 1014.1
20260507024905 7 12 1.6 6.4 0.00 0.00 0.00 89 1014.1
20260507024656 7 11 3.2 6.4 0.00 0.00 0.00 90 1014.1
20260507024626 7 12 3.2 6.4 0.00 0.00 0.00 90 1014.1
20260507024002 7 12 3.2 6.4 0.00 0.00 0.00 90 1014.0
20260507023906 7 13 3.2 6.4 0.00 0.00 0.00 90 1014.0
20260507023504 7 5 1.6 6.4 0.00 0.00 0.00 90 1014.0
20260507023402 7 5 1.6 6.4 0.00 0.00 0.00 90 1014.0
20260507023004 7 9 1.6 6.4 0.00 0.00 0.00 90 1014.0
20260507022903 7 9 1.6 6.4 0.00 0.00 0.00 90 1014.0
20260507022502 7 14 1.6 4.8 0.00 0.00 0.00 90 1014.0
20260507022402 7 14 1.6 4.8 0.00 0.00 0.00 90 1014.0
20260507022004 7 14 1.6 6.4 0.00 0.00 0.00 90 1014.0
20260507021906 7 14 1.6 6.4 0.00 0.00 0.00 90 1014.0
20260507021503 7 15 1.6 6.4 0.00 0.00 0.00 90 1013.9
20260507021405 7 15 1.6 6.4 0.00 0.00 0.00 90 1013.9
20260507021003 6 16 1.6 6.4 0.00 0.00 0.00 90 1013.9
20260507020903 6 16 1.6 6.4 0.00 0.00 0.00 90 1013.9
20260507020503 6 24 1.6 6.4 0.00 0.00 0.00 90 1013.9
20260507020402 6 24 0.0 6.4 0.00 0.00 0.00 90 1013.9
20260507020003 6 26 0.0 4.8 0.00 0.00 0.00 89 1013.8
20260507015904 6 26 0.0 4.8 0.00 0.00 0.00 89 1013.9
20260507015501 6 28 0.0 0.0 0.00 0.00 0.00 89 1013.8
20260507015402 6 28 0.0 0.0 0.00 0.00 0.00 89 1013.8
20260507015006 6 28 0.0 0.0 0.00 0.00 0.00 89 1013.8
20260507014904 6 28 0.0 0.0 0.00 0.00 0.00 89 1013.8
20260507014503 6 28 0.0 0.0 0.00 0.00 0.00 88 1013.8
20260507014403 6 28 0.0 0.0 0.00 0.00 0.00 88 1013.8
20260507014004 6 28 0.0 0.0 0.00 0.00 0.00 88 1013.8
20260507013904 6 28 0.0 0.0 0.00 0.00 0.00 88 1013.8
20260507013501 6 28 0.0 0.0 0.00 0.00 0.00 88 1013.7
20260507013403 6 28 0.0 0.0 0.00 0.00 0.00 88 1013.7
20260507013154 7 28 0.0 0.0 0.00 0.00 0.00 88 1013.7
20260507013126 7 28 0.0 0.0 0.00 0.00 0.00 88 1013.7
20260507012501 7 28 0.0 0.0 0.00 0.00 0.00 88 1013.7
20260507012403 7 28 0.0 0.0 0.00 0.00 0.00 88 1013.7
20260507012004 7 28 0.0 0.0 0.00 0.00 0.00 88 1013.7
20260507011904 7 28 0.0 0.0 0.00 0.00 0.00 87 1013.7
20260507011504 7 28 0.0 0.0 0.00 0.00 0.00 87 1013.7
20260507011402 7 28 0.0 0.0 0.00 0.00 0.00 87 1013.7
20260507011003 7 28 0.0 0.0 0.00 0.00 0.00 87 1013.7
20260507010904 7 28 0.0 0.0 0.00 0.00 0.00 87 1013.6
20260507010502 7 28 0.0 0.0 0.00 0.00 0.00 87 1013.6
20260507010402 7 28 0.0 0.0 0.00 0.00 0.00 87 1013.6
20260507010003 7 28 0.0 3.2 0.00 0.00 0.00 87 1013.7
20260507005905 7 28 0.0 3.2 0.00 0.00 0.00 87 1013.6
20260507005504 7 28 0.0 4.8 0.00 0.00 0.00 87 1013.6
20260507005404 7 28 1.6 4.8 0.00 0.00 0.00 87 1013.6
20260507005157 7 28 1.6 4.8 0.00 0.00 0.00 87 1013.6
20260507005128 7 28 1.6 4.8 0.00 0.00 0.00 87 1013.6
20260507004504 7 28 1.6 6.4 0.00 0.00 0.00 87 1013.6
20260507004405 7 28 1.6 6.4 0.00 0.00 0.00 87 1013.7
20260507004156 7 28 3.2 8.0 0.00 0.00 0.00 87 1013.6
20260507004127 7 28 3.2 8.0 0.00 0.00 0.00 87 1013.6
20260507003503 7 33 3.2 8.0 0.00 0.00 0.00 87 1013.6
20260507003404 7 32 3.2 8.0 0.00 0.00 0.00 87 1013.7
20260507003002 7 29 3.2 6.4 0.00 0.00 0.00 87 1013.6
20260507002905 7 29 3.2 6.4 0.00 0.00 0.00 87 1013.6
20260507002503 7 30 3.2 6.4 0.00 0.00 0.00 87 1013.6
20260507002403 7 29 3.2 6.4 0.00 0.00 0.00 87 1013.6
20260507002200 7 18 3.2 6.4 0.00 0.00 0.00 86 1013.6
20260507002129 7 22 3.2 6.4 0.00 0.00 0.00 87 1013.6
20260507001503 7 23 3.2 6.4 0.00 0.00 0.00 86 1013.6
20260507001402 7 24 1.6 6.4 0.00 0.00 0.00 86 1013.5
20260507001003 7 31 1.6 6.4 0.00 0.00 0.00 86 1013.5
20260507000904 7 30 1.6 6.4 0.00 0.00 0.00 86 1013.5
20260507000505 7 26 1.6 6.4 0.00 0.00 0.00 86 1013.5
20260507000405 7 26 1.6 6.4 0.00 0.00 0.00 86 1013.6
20260507000004 7 26 3.2 6.4 0.00 0.00 0.00 86 1013.5
20260506235907 7 26 3.2 6.4 0.00 0.00 0.00 85 1013.6
20260506235503 8 21 1.6 8.0 0.00 0.00 0.00 85 1013.7
20260506235404 8 22 1.6 8.0 0.00 0.00 0.00 85 1013.6
20260506235002 8 24 0.0 8.0 0.00 0.00 0.00 85 1013.6
20260506234904 8 24 0.0 8.0 0.00 0.00 0.00 85 1013.6
20260506234504 8 22 0.0 4.8 0.00 0.00 0.00 85 1013.6
20260506234403 8 22 0.0 4.8 0.00 0.00 0.00 85 1013.6
20260506234002 8 22 1.6 4.8 0.00 0.00 0.00 84 1013.6
20260506233904 8 22 1.6 6.4 0.00 0.00 0.00 84 1013.6
20260506233504 8 26 1.6 6.4 0.00 0.00 0.00 84 1013.6
20260506233404 8 26 1.6 6.4 0.00 0.00 0.00 84 1013.5
20260506233002 8 26 1.6 6.4 0.00 0.00 0.00 84 1013.6
20260506232905 8 22 0.0 6.4 0.00 0.00 0.00 84 1013.6
20260506232503 8 25 1.6 6.4 0.00 0.00 0.00 83 1013.6
20260506232405 8 25 1.6 6.4 0.00 0.00 0.00 83 1013.6
20260506232003 8 25 1.6 6.4 0.00 0.00 0.00 83 1013.6
20260506231905 8 25 1.6 6.4 0.00 0.00 0.00 83 1013.6
20260506231702 8 24 3.2 8.0 0.00 0.00 0.00 83 1013.5
20260506231627 8 24 3.2 8.0 0.00 0.00 0.00 83 1013.5
20260506231003 8 19 3.2 8.0 0.00 0.00 0.00 82 1013.5
20260506230954 8 29 3.2 11.3 0.00 0.00 0.00 82 1013.5
20260506230937 8 19 3.2 8.0 0.00 0.00 0.00 82 1013.5
20260506230626 8 29 3.2 9.7 0.00 0.00 0.00 82 1013.4
20260506230003 8 13 3.2 11.3 0.00 0.00 0.00 82 1013.4
20260506225904 8 13 3.2 11.3 0.00 0.00 0.00 82 1013.5
20260506225503 8 9 3.2 11.3 0.00 0.00 0.00 82 1013.4
20260506225403 8 19 3.2 8.0 0.00 0.00 0.00 82 1013.4
20260506225003 8 23 3.2 8.0 0.00 0.00 0.00 82 1013.4
20260506224904 8 26 3.2 8.0 0.00 0.00 0.00 82 1013.4
20260506224502 8 12 3.2 9.7 0.00 0.00 0.00 82 1013.4
20260506224403 8 11 3.2 9.7 0.00 0.00 0.00 82 1013.4
20260506224002 9 35 4.8 9.7 0.00 0.00 0.00 82 1013.4
20260506223905 9 30 3.2 9.7 0.00 0.00 0.00 82 1013.4
20260506223503 9 35 4.8 14.5 0.00 0.00 0.00 82 1013.4
20260506223403 9 34 4.8 16.1 0.00 0.00 0.00 82 1013.3
20260506223001 9 55 6.4 16.1 0.00 0.00 0.00 82 1013.3
20260506222906 9 11 6.4 16.1 0.00 0.00 0.00 82 1013.3
20260506222505 9 40 4.8 16.1 0.00 0.00 0.00 82 1013.3
20260506222404 9 10 4.8 14.5 0.00 0.00 0.00 82 1013.3
20260506222002 9 44 3.2 11.3 0.00 0.00 0.00 83 1013.3
20260506221903 9 24 3.2 11.3 0.00 0.00 0.00 82 1013.3
20260506221503 9 27 3.2 11.3 0.00 0.00 0.00 82 1013.2
20260506221402 9 355 3.2 11.3 0.00 0.00 0.00 82 1013.2
20260506221221 9 5 3.2 8.0 0.00 0.00 0.00 82 1013.2
20260506221142 9 19 3.2 8.0 0.00 0.00 0.00 82 1013.2
20260506220502 9 355 3.2 8.0 0.00 0.00 0.00 82 1013.2
20260506220406 9 16 3.2 6.4 0.00 0.00 0.00 82 1013.1
20260506220002 9 14 3.2 6.4 0.00 0.00 0.00 81 1013.2
20260506215906 9 24 1.6 6.4 0.00 0.00 0.00 81 1013.1
20260506215503 9 5 3.2 8.0 0.00 0.00 0.00 81 1013.0
20260506215451 10 11 3.2 8.0 0.00 0.00 0.00 80 1013.0
20260506215435 9 5 3.2 8.0 0.00 0.00 0.00 80 1013.0
20260506215129 10 5 3.2 8.0 0.00 0.00 0.00 80 1013.0
20260506214504 10 5 3.2 8.0 0.00 0.00 0.00 79 1013.0
20260506214404 10 355 3.2 8.0 0.00 0.00 0.00 79 1013.0
20260506214002 10 5 4.8 8.0 0.00 0.00 0.00 79 1013.0
20260506213904 10 24 4.8 12.9 0.00 0.00 0.00 78 1013.0
20260506213503 10 15 3.2 12.9 0.00 0.00 0.00 78 1012.9
20260506213404 10 27 3.2 12.9 0.00 0.00 0.00 78 1012.9
20260506213003 10 355 3.2 12.9 0.00 0.00 0.00 77 1012.9
20260506212905 10 0 3.2 9.7 0.00 0.00 0.00 76 1012.9
20260506212504 10 27 3.2 8.0 0.00 0.00 0.00 76 1012.9
20260506212402 10 27 3.2 8.0 0.00 0.00 0.00 76 1012.9
20260506212003 10 11 3.2 9.7 0.00 0.00 0.00 76 1012.8
20260506211906 10 11 3.2 11.3 0.00 0.00 0.00 75 1012.8
20260506211503 10 355 3.2 14.5 0.00 0.00 0.00 75 1012.8
20260506211403 10 26 3.2 14.5 0.00 0.00 0.00 75 1012.8
20260506211002 10 23 3.2 14.5 0.00 0.00 0.00 75 1012.7
20260506210915 10 15 3.2 14.5 0.00 0.00 0.00 75 1012.7
20260506210503 10 355 4.8 12.9 0.00 0.00 0.00 75 1012.7
20260506210403 10 20 4.8 12.9 0.00 0.00 0.00 75 1012.7
20260506210000 10 28 4.8 17.7 0.00 0.00 0.00 75 1012.7
20260506205904 10 11 4.8 17.7 0.00 0.00 0.00 75 1012.6
20260506205457 10 5 4.8 17.7 0.00 0.00 0.00 75 1012.7
20260506205403 10 37 4.8 17.7 0.00 0.00 0.00 75 1012.6
20260506204958 10 19 4.8 14.5 0.00 0.00 0.00 75 1012.6
20260506204904 10 355 4.8 14.5 0.00 0.00 0.00 75 1012.5
20260506204456 11 36 6.4 14.5 0.00 0.00 0.00 74 1012.5
20260506204403 11 49 6.4 14.5 0.00 0.00 0.00 74 1012.5
20260506203954 11 18 4.8 17.7 0.00 0.00 0.00 74 1012.5
20260506203912 11 24 4.8 17.7 0.00 0.00 0.00 74 1012.4
20260506203453 11 53 4.8 17.7 0.00 0.00 0.00 74 1012.5
20260506203403 11 0 3.2 17.7 0.00 0.00 0.00 74 1012.4
20260506202951 11 20 3.2 12.9 0.00 0.00 0.00 73 1012.4
20260506202903 11 15 3.2 11.3 0.00 0.00 0.00 73 1012.4
20260506202452 11 355 3.2 11.3 0.00 0.00 0.00 73 1012.4
20260506202404 11 26 3.2 11.3 0.00 0.00 0.00 72 1012.4
20260506201951 11 21 3.2 11.3 0.00 0.00 0.00 72 1012.3
20260506201904 11 5 3.2 11.3 0.00 0.00 0.00 71 1012.3
20260506201448 11 42 4.8 9.7 0.00 0.00 0.00 71 1012.3
20260506201407 11 43 4.8 9.7 0.00 0.00 0.00 71 1012.3
20260506200945 11 5 4.8 11.3 0.00 0.00 0.00 71 1012.3
20260506200905 11 20 4.8 11.3 0.00 0.00 0.00 71 1012.3
20260506200443 11 0 6.4 14.5 0.00 0.00 0.00 70 1012.3
20260506200403 11 14 6.4 14.5 0.00 0.00 0.00 70 1012.3
20260506195943 11 30 6.4 17.7 0.00 0.00 0.00 70 1012.3
20260506195905 11 30 6.4 17.7 0.00 0.00 0.00 70 1012.3
20260506195443 11 40 6.4 17.7 0.00 0.00 0.00 70 1012.2
20260506195403 11 21 6.4 17.7 0.00 0.00 0.00 70 1012.2
20260506194944 11 26 6.4 14.5 0.00 0.00 0.00 70 1012.1
20260506194906 11 15 6.4 14.5 0.00 0.00 0.00 70 1012.1
20260506194701 11 34 6.4 16.1 0.00 0.00 0.00 70 1012.0
20260506194623 11 39 6.4 14.5 0.00 0.00 0.00 70 1012.0
20260506193942 11 42 8.0 17.7 0.00 0.00 0.00 70 1012.1
20260506193903 11 347 8.0 17.7 0.00 0.00 0.00 70 1012.1
20260506193442 11 44 8.0 17.7 0.00 0.00 0.00 69 1011.9
20260506193402 11 30 8.0 17.7 0.00 0.00 0.00 69 1011.9
20260506192939 11 58 6.4 20.9 0.00 0.00 0.00 69 1011.9
20260506192903 11 16 6.4 20.9 0.00 0.00 0.00 70 1011.9
20260506192438 11 17 6.4 20.9 0.00 0.00 0.00 70 1011.7
20260506192403 11 0 6.4 20.9 0.00 0.00 0.00 70 1011.7
20260506192159 12 40 6.4 16.1 0.00 0.00 0.00 70 1011.7
20260506192120 12 30 6.4 16.1 0.00 0.00 0.00 70 1011.7
20260506191438 12 5 8.0 17.7 0.00 0.00 0.00 70 1011.7
20260506191405 12 5 8.0 17.7 0.00 0.00 0.00 70 1011.7
20260506190905 12 45 8.0 17.7 0.00 0.00 0.00 70 1011.6
20260506190435 12 13 6.4 20.9 0.00 0.00 0.00 70 1011.5
20260506190403 12 20 6.4 20.9 0.00 0.00 0.00 70 1011.5
20260506190200 12 17 6.4 20.9 0.00 0.00 0.00 70 1011.4
20260506190120 12 30 6.4 20.9 0.00 0.00 0.00 70 1011.4
20260506185704 12 40 6.4 19.3 0.00 0.00 0.00 70 1011.3
20260506185620 12 85 6.4 19.3 0.00 0.00 0.00 70 1011.3
20260506184932 12 355 8.0 19.3 0.00 0.00 0.00 71 1011.2
20260506184904 12 26 8.0 19.3 0.00 0.00 0.00 71 1011.2
20260506184431 12 24 9.7 20.9 0.00 0.00 0.00 70 1011.2
20260506184403 12 45 9.7 20.9 0.00 0.00 0.00 70 1011.2
20260506183930 12 54 9.7 20.9 0.00 0.00 0.00 71 1011.1
20260506183905 12 348 9.7 20.9 0.00 0.00 0.00 71 1011.1
20260506183431 12 34 8.0 24.1 0.00 0.00 0.00 71 1011.0
20260506183405 12 36 8.0 24.1 0.00 0.00 0.00 71 1011.0
20260506182932 12 11 9.7 24.1 0.00 0.00 0.00 71 1011.0
20260506182905 12 355 9.7 24.1 0.00 0.00 0.00 71 1011.0
20260506182431 12 16 9.7 22.5 0.00 0.00 0.00 71 1011.0
20260506182403 12 17 9.7 22.5 0.00 0.00 0.00 71 1011.0
20260506181931 12 38 9.7 22.5 0.00 0.00 0.00 71 1011.0
20260506181905 12 340 9.7 22.5 0.00 0.00 0.00 71 1011.0
20260506181431 12 9 8.0 20.9 0.00 0.00 0.00 71 1010.8
20260506181402 12 16 8.0 20.9 0.00 0.00 0.00 71 1010.8
20260506180933 12 31 9.7 20.9 0.00 0.00 0.00 71 1010.8
20260506180904 12 339 9.7 20.9 0.00 0.00 0.00 71 1010.8
20260506180431 12 336 9.7 19.3 0.00 0.00 0.00 70 1010.8
20260506180406 12 81 9.7 19.3 0.00 0.00 0.00 70 1010.8
20260506175932 12 340 9.7 19.3 0.00 0.00 0.00 69 1010.7
20260506175905 12 345 9.7 19.3 0.00 0.00 0.00 69 1010.7
20260506175432 12 0 6.4 22.5 0.00 0.00 0.00 68 1010.6
20260506175403 13 320 6.4 22.5 0.00 0.00 0.00 68 1010.6
20260506174932 12 28 3.2 22.5 0.00 0.00 0.00 65 1010.6
20260506174905 12 321 3.2 22.5 0.00 0.00 0.00 65 1010.6
20260506174434 12 335 1.6 6.4 0.00 0.00 0.00 65 1010.5
20260506174404 12 355 1.6 6.4 0.00 0.00 0.00 65 1010.5
20260506174200 13 30 3.2 9.7 0.00 0.00 0.00 64 1010.5
20260506174120 13 30 3.2 9.7 0.00 0.00 0.00 64 1010.5
20260506173657 13 40 4.8 9.7 0.00 0.00 0.00 64 1010.4
20260506173619 13 38 4.8 9.7 0.00 0.00 0.00 64 1010.4
20260506172931 13 45 4.8 9.7 0.00 0.00 0.00 63 1010.4
20260506172903 13 29 4.8 9.7 0.00 0.00 0.00 63 1010.4
20260506172431 13 51 4.8 12.9 0.00 0.00 0.00 63 1010.4
20260506172403 13 34 4.8 12.9 0.00 0.00 0.00 63 1010.4
20260506171930 13 17 4.8 14.5 0.00 0.00 0.00 61 1010.3
20260506171905 13 72 4.8 14.5 0.00 0.00 0.00 61 1010.3
20260506171617 13 55 3.2 9.7 0.00 0.00 0.00 61 1010.2
20260506171545 13 98 3.2 14.5 0.00 0.00 0.00 61 1010.2
20260506171534 13 45 3.2 14.5 0.00 0.00 0.00 61 1010.2
20260506171303 13 32 3.2 9.7 0.00 0.00 0.00 61 1010.3
20260506171208 13 32 3.2 9.7 0.00 0.00 0.00 61 1010.3
20260506170622 13 54 3.2 9.7 0.00 0.00 0.00 61 1010.2
20260506170151 13 54 4.8 14.5 0.00 0.00 0.00 61 1010.2
20260506170121 13 55 4.8 12.9 0.00 0.00 0.00 60 1010.2
20260506165427 13 29 4.8 14.5 0.00 0.00 0.00 60 1010.2
20260506165404 13 32 4.8 14.5 0.00 0.00 0.00 61 1010.2
20260506164924 13 57 4.8 14.5 0.00 0.00 0.00 61 1010.2
20260506164906 13 29 4.8 14.5 0.00 0.00 0.00 61 1010.2
20260506164424 13 28 4.8 14.5 0.00 0.00 0.00 61 1010.2
20260506164403 13 29 4.8 14.5 0.00 0.00 0.00 61 1010.2
20260506163917 13 22 6.4 16.1 0.00 0.00 0.00 62 1010.3
20260506163902 13 19 6.4 16.1 0.00 0.00 0.00 62 1010.3
20260506163417 13 41 6.4 16.1 0.00 0.00 0.00 61 1010.2
20260506163403 13 21 6.4 16.1 0.00 0.00 0.00 61 1010.2
20260506162914 13 18 6.4 14.5 0.00 0.00 0.00 61 1010.2
20260506162906 13 17 6.4 14.5 0.00 0.00 0.00 61 1010.2
20260506162413 13 37 6.4 16.1 0.00 0.00 0.00 61 1010.2
20260506162403 13 40 6.4 16.1 0.00 0.00 0.00 61 1010.2
20260506161905 13 41 6.4 17.7 0.00 0.00 0.00 60 1010.2
20260506161407 13 41 6.4 20.9 0.00 0.00 0.00 60 1010.2
20260506161403 13 44 6.4 20.9 0.00 0.00 0.00 60 1010.2
20260506161023 13 351 6.4 19.3 0.00 0.00 0.00 60 1010.2
20260506160959 13 44 8.0 20.9 0.00 0.00 0.00 60 1010.2
20260506160953 13 51 8.0 20.9 0.00 0.00 0.00 60 1010.2
20260506160613 13 333 6.4 19.3 0.00 0.00 0.00 60 1010.2
20260506155906 13 53 6.4 19.3 0.00 0.00 0.00 59 1010.2
20260506155700 13 63 8.0 17.7 0.00 0.00 0.00 58 1010.1
20260506155611 13 59 8.0 17.7 0.00 0.00 0.00 58 1010.1
20260506154903 13 34 8.0 19.3 0.00 0.00 0.00 57 1010.2
20260506154404 13 34 6.4 22.5 0.00 0.00 0.00 57 1010.1
20260506153904 13 19 6.4 22.5 0.00 0.00 0.00 55 1010.1
20260506153713 14 13 6.4 16.1 0.00 0.00 0.00 56 1010.1
20260506153610 14 13 6.4 16.1 0.00 0.00 0.00 56 1010.1
20260506152903 14 0 6.4 17.7 0.00 0.00 0.00 56 1010.1
20260506152404 14 350 8.0 24.1 0.00 0.00 0.00 55 1010.1
20260506151906 14 34 8.0 24.1 0.00 0.00 0.00 53 1010.0
20260506151403 14 38 6.4 17.7 0.00 0.00 0.00 54 1010.0
20260506150906 14 20 4.8 16.1 0.00 0.00 0.00 53 1010.0
20260506150410 14 19 4.8 16.1 0.00 0.00 0.00 53 1010.0
20260506145905 14 76 8.0 19.3 0.00 0.00 0.00 54 1010.0
20260506145402 13 346 8.0 22.5 0.00 0.00 0.00 53 1009.9
20260506144909 14 55 6.4 22.5 0.00 0.00 0.00 55 1010.0
20260506144404 14 42 4.8 14.5 0.00 0.00 0.00 54 1010.0
20260506143906 14 28 4.8 14.5 0.00 0.00 0.00 55 1010.0
20260506143405 14 42 3.2 14.5 0.00 0.00 0.00 55 1010.0
20260506142908 14 44 3.2 12.9 0.00 0.00 0.00 56 1010.0
20260506142403 14 76 6.4 16.1 0.00 0.00 0.00 55 1009.9
20260506141905 14 32 8.0 17.7 0.00 0.00 0.00 54 1010.0
20260506141404 14 46 8.0 17.7 0.00 0.00 0.00 53 1010.0
20260506141204 14 14 6.4 17.7 0.00 0.00 0.00 52 1009.9
20260506141116 14 14 6.4 17.7 0.00 0.00 0.00 52 1009.9
20260506140405 14 76 6.4 20.9 0.00 0.00 0.00 52 1009.9
20260506135905 14 38 8.0 20.9 0.00 0.00 0.00 51 1009.9
20260506135403 14 36 8.0 19.3 0.00 0.00 0.00 52 1009.9
20260506134904 14 51 8.0 22.5 0.00 0.00 0.00 52 1009.9
20260506134404 14 56 9.7 22.5 0.00 0.00 0.00 52 1009.9
20260506133906 14 38 9.7 22.5 0.00 0.00 0.00 53 1009.9
20260506133403 14 44 9.7 24.1 0.00 0.00 0.00 51 1009.8
20260506132905 14 51 11.3 27.4 0.00 0.00 0.00 51 1009.8
20260506132404 14 42 9.7 27.4 0.00 0.00 0.00 49 1009.8
20260506132009 14 78 9.7 20.9 0.00 0.00 0.00 50 1009.8
20260506131943 14 57 8.0 20.9 0.00 0.00 0.00 50 1009.8
20260506131613 14 78 9.7 20.9 0.00 0.00 0.00 50 1009.8
20260506130904 14 42 9.7 25.7 0.00 0.00 0.00 51 1009.8
20260506130401 14 34 9.7 25.7 0.00 0.00 0.00 52 1009.7
20260506125905 14 71 9.7 22.5 0.00 0.00 0.00 53 1009.7
20260506125402 14 26 11.3 22.5 0.00 0.00 0.00 52 1009.7
20260506124904 14 69 8.0 22.5 0.00 0.00 0.00 52 1009.7
20260506124706 14 40 6.4 19.3 0.00 0.00 0.00 52 1009.8
20260506124612 14 40 6.4 19.3 0.00 0.00 0.00 52 1009.8
20260506123902 14 44 9.7 22.5 0.00 0.00 0.00 52 1009.7
20260506123403 14 53 11.3 27.4 0.00 0.00 0.00 52 1009.7
20260506123202 14 18 11.3 27.4 0.00 0.00 0.00 51 1009.7
20260506123113 14 18 11.3 27.4 0.00 0.00 0.00 51 1009.7
20260506122403 14 65 9.7 22.5 0.00 0.00 0.00 52 1009.7
20260506121906 14 68 8.0 22.5 0.00 0.00 0.00 52 1009.7
20260506121403 14 12 4.8 17.7 0.00 0.00 0.00 54 1009.6
20260506120904 14 38 6.4 19.3 0.00 0.00 0.00 54 1009.6
20260506120406 14 23 6.4 19.3 0.00 0.00 0.00 54 1009.6
20260506115906 14 46 6.4 19.3 0.00 0.00 0.00 54 1009.6
20260506115402 14 31 6.4 19.3 0.00 0.00 0.00 54 1009.6
20260506115206 14 38 6.4 19.3 0.00 0.00 0.00 54 1009.6
20260506115114 14 38 6.4 19.3 0.00 0.00 0.00 54 1009.6
20260506114402 14 71 8.0 24.1 0.00 0.00 0.00 55 1009.6
20260506113903 14 51 9.7 24.1 0.00 0.00 0.00 53 1009.7
20260506113405 14 50 9.7 19.3 0.00 0.00 0.00 53 1009.6
20260506112906 14 47 8.0 27.4 0.00 0.00 0.00 54 1009.6
20260506112405 14 27 9.7 27.4 0.00 0.00 0.00 55 1009.5
20260506111906 14 48 8.0 22.5 0.00 0.00 0.00 54 1009.6
20260506111404 14 12 6.4 17.7 0.00 0.00 0.00 53 1009.5
20260506110902 15 44 4.8 16.1 0.00 0.00 0.00 56 1009.5
20260506110402 14 28 4.8 20.9 0.00 0.00 0.00 57 1009.4
20260506105906 14 61 6.4 20.9 0.00 0.00 0.00 57 1009.4
20260506105404 13 355 6.4 20.9 0.00 0.00 0.00 59 1009.4
20260506104905 13 30 6.4 17.7 0.00 0.00 0.00 60 1009.4
20260506104405 13 24 8.0 17.7 0.00 0.00 0.00 63 1009.4
20260506104203 13 32 8.0 17.7 0.00 0.00 0.00 64 1009.4
20260506104113 13 32 8.0 17.7 0.00 0.00 0.00 64 1009.4
20260506103401 13 30 8.0 19.3 0.00 0.00 0.00 64 1009.4
20260506103006 13 44 8.0 17.7 0.00 0.00 0.00 62 1009.3
20260506102938 13 53 8.0 19.3 0.00 0.00 0.00 64 1009.4
20260506102612 13 44 8.0 17.7 0.00 0.00 0.00 62 1009.3
20260506101903 13 68 8.0 20.9 0.00 0.00 0.00 61 1009.4
20260506101402 13 57 8.0 20.9 0.00 0.00 0.00 61 1009.3
20260506100904 13 38 6.4 19.3 0.00 0.00 0.00 63 1009.3
20260506100657 13 46 6.4 19.3 0.00 0.00 0.00 63 1009.2
20260506100610 13 46 6.4 19.3 0.00 0.00 0.00 63 1009.2
20260506095906 13 42 6.4 19.3 0.00 0.00 0.00 65 1009.2
20260506095405 13 55 6.4 19.3 0.00 0.00 0.00 66 1009.1
20260506095207 13 28 8.0 20.9 0.00 0.00 0.00 71 1009.2
20260506095115 13 28 8.0 20.9 0.00 0.00 0.00 71 1009.2
20260506094401 13 40 9.7 24.1 0.00 0.00 0.00 72 1009.1
20260506093904 12 23 9.7 24.1 0.00 0.00 0.00 73 1009.1
20260506093403 12 13 9.7 22.5 0.00 0.00 0.00 75 1009.1
20260506093220 12 330 9.7 22.5 0.00 0.00 0.00 76 1009.1
20260506093113 12 330 9.7 22.5 0.00 0.00 0.00 76 1009.1
20260506092402 12 36 9.7 19.3 0.00 0.00 0.00 76 1009.1
20260506091905 12 23 8.0 22.5 0.00 0.00 0.00 77 1009.1
20260506091405 12 26 9.7 22.5 0.00 0.00 0.00 77 1009.0
20260506091004 12 346 9.7 20.9 0.00 0.00 0.00 78 1009.0
20260506090938 12 49 9.7 22.5 0.00 0.00 0.00 77 1009.0
20260506090613 12 346 9.7 20.9 0.00 0.00 0.00 78 1009.0
20260506085906 12 331 9.7 20.9 0.00 0.00 0.00 78 1009.0
20260506085402 12 90 9.7 19.3 0.00 0.00 0.00 77 1009.0
20260506084909 12 346 8.0 19.3 0.00 0.00 0.00 76 1009.0
20260506084402 12 5 8.0 19.3 0.00 0.00 0.00 75 1009.0
20260506083903 12 13 8.0 17.7 0.00 0.00 0.00 75 1009.0
20260506083403 12 38 8.0 19.3 0.00 0.00 0.00 75 1008.9
20260506083023 12 33 9.7 24.1 0.00 0.00 0.00 74 1008.9
20260506082952 12 38 9.7 20.9 0.00 0.00 0.00 74 1008.9
20260506082613 12 33 9.7 24.1 0.00 0.00 0.00 74 1008.9
20260506081903 12 340 9.7 24.1 0.00 0.00 0.00 73 1008.9
20260506081657 12 0 9.7 22.5 0.00 0.00 0.00 73 1008.9
20260506081610 12 0 9.7 22.5 0.00 0.00 0.00 73 1008.9
20260506081200 12 5 9.7 22.5 0.00 0.00 0.00 74 1008.9
20260506081112 12 5 9.7 22.5 0.00 0.00 0.00 74 1008.9
20260506080408 12 355 9.7 19.3 0.00 0.00 0.00 74 1008.9
20260506080401 12 26 9.7 19.3 0.00 0.00 0.00 74 1008.9